Sturgis, MI

2:37 AM EDT on April 30, 2017 (GMT -0400)
Kirsch Municipal

Weather History for KIRS - February, 2014

Change the Weather History Date:

Sunday, February 9, 2014

  Actual Average (KHAI) Record (KHAI)
Temperature  
Mean Temperature 14 °F -  
Max Temperature 19 °F 32 °F 58 °F (1990)
Min Temperature 8 °F 12 °F -18 °F (1979)
Degree Days  
Heating Degree Days 52    
Moisture  
Dew Point 9 °F    
Average Humidity 84    
Maximum Humidity 93    
Minimum Humidity 68    
Precipitation  
Precipitation 0.00 in - - ()
Sea Level Pressure  
Sea Level Pressure 30.08 in    
Wind  
Wind Speed 3 mph (West)    
Max Wind Speed 13 mph    
Max Gust Speed 18 mph    
Visibility 7 miles    
Events Snow    
Averages and records for this station are not official NWS values.
T = Trace of Precipitation, MM = Missing Value Source: NWS Daily Summary

Daily Weather History Graph

Daily Weather History Graph

Search for Another Location

Airport or City:

Trip Planner

Search our weather history database for the weather conditions in past years. The results will help you decide how hot, cold, wet, or windy it might be!

Date:

Astronomy

Feb. 09, 2014 Rise Set
Actual Time 7:45 AM EST 6:07 PM EST
Civil Twilight 7:16 AM EST 6:36 PM EST
Nautical Twilight 6:43 AM EST 7:09 PM EST
Astronomical Twilight 6:10 AM EST 7:41 PM EST
Moon 1:45 PM EST (2/9) 3:51 AM EST (2/9)
Length of Visible Light 11h 20m
Length of Day
10h 22m
Waxing Gibbous, 77% of the Moon is Illuminated
Feb 9
Waxing Gibbous
Feb 14
Full
Feb 22
Last Quarter
Mar 1
New
Mar 8
First Quarter

Hourly Weather History & Observations

Time (EST) Temp. Windchill Dew Point Humidity Pressure Visibility Wind Dir Wind Speed Gust Speed Precip Events Conditions
12:15 AM 12.2 °F - 8.6 °F 85% 30.10 in 4.0 mi Calm Calm - N/A Snow Light Snow
12:35 AM 12.2 °F - 8.6 °F 85% 30.10 in 5.0 mi Calm Calm - N/A Snow Light Snow
12:55 AM 12.2 °F - 8.6 °F 85% 30.10 in 7.0 mi Calm Calm - N/A Snow Light Snow
1:14 AM 12.2 °F - 8.6 °F 85% 30.09 in 7.0 mi Calm Calm - N/A Snow Light Snow
1:35 AM 12.2 °F - 8.6 °F 85% 30.08 in 7.0 mi Calm Calm - N/A Snow Light Snow
1:55 AM 12.2 °F - 8.6 °F 85% 30.08 in 7.0 mi Calm Calm - N/A Snow Light Snow
2:14 AM 12.2 °F - 8.6 °F 85% 30.08 in 7.0 mi Calm Calm - N/A Snow Light Snow
2:35 AM 10.4 °F - 8.6 °F 92% 30.07 in 7.0 mi Calm Calm - N/A Snow Light Snow
2:55 AM 10.4 °F - 8.6 °F 92% 30.07 in 7.0 mi Calm Calm - N/A Snow Light Snow
3:14 AM 10.4 °F - 8.6 °F 92% 30.07 in 7.0 mi Calm Calm - N/A Snow Light Snow
3:35 AM 10.4 °F - 8.6 °F 92% 30.06 in 7.0 mi Calm Calm - N/A Snow Light Snow
3:55 AM 12.2 °F - 8.6 °F 85% 30.07 in 2.5 mi Calm Calm - N/A Snow Light Snow
4:14 AM 10.4 °F - 8.6 °F 92% 30.06 in 1.8 mi Calm Calm - N/A Snow Light Snow
4:35 AM 12.2 °F - 8.6 °F 85% 30.06 in 2.0 mi Calm Calm - N/A Snow Light Snow
4:55 AM 10.4 °F - 8.6 °F 92% 30.06 in 1.5 mi Calm Calm - N/A Snow Light Snow
5:14 AM 12.2 °F - 10.4 °F 92% 30.05 in 1.8 mi Calm Calm - N/A Snow Light Snow
5:35 AM 12.2 °F - 10.4 °F 92% 30.05 in 2.5 mi Calm Calm - N/A Snow Light Snow
5:55 AM 12.2 °F - 10.4 °F 92% 30.05 in 1.2 mi Calm Calm - N/A Snow Light Snow
6:14 AM 12.2 °F - 10.4 °F 92% 30.04 in 1.5 mi Calm Calm - N/A Snow Light Snow
6:35 AM 12.2 °F - 10.4 °F 92% 30.05 in 2.5 mi Calm Calm - N/A Snow Light Snow
6:55 AM 12.2 °F - 10.4 °F 92% 30.04 in 3.0 mi Calm Calm - N/A Snow Light Snow
7:14 AM 12.2 °F - 10.4 °F 92% 30.05 in 1.2 mi Calm Calm - N/A Snow Light Snow
7:35 AM 12.2 °F - 10.4 °F 92% 30.03 in 3.0 mi Calm Calm - N/A Snow Light Snow
7:54 AM 12.2 °F - 10.4 °F 92% 30.04 in 3.0 mi Calm Calm - N/A Snow Light Snow
8:15 AM 12.2 °F - 10.4 °F 92% 30.04 in 2.5 mi Calm Calm - N/A Snow Light Snow
8:35 AM 12.2 °F - 10.4 °F 92% 30.04 in 2.0 mi Calm Calm - N/A Snow Light Snow
8:54 AM 12.2 °F - 10.4 °F 92% 30.05 in 2.0 mi Calm Calm - N/A Snow Light Snow
9:15 AM 12.2 °F 2.9 °F 10.4 °F 92% 30.05 in 3.0 mi West 5.8 mph - N/A   Mostly Cloudy
9:35 AM 14.0 °F 5.1 °F 12.2 °F 93% 30.05 in 2.5 mi West 5.8 mph - N/A Snow Light Snow
9:54 AM 15.8 °F 8.6 °F 12.2 °F 86% 30.05 in 1.8 mi West 4.6 mph - N/A Snow Light Snow
10:15 AM 15.8 °F 6.1 °F 12.2 °F 86% 30.05 in 2.5 mi West 6.9 mph - N/A Snow Light Snow
10:35 AM 15.8 °F 5.1 °F 12.2 °F 86% 30.05 in 5.0 mi West 8.1 mph - N/A Snow Light Snow
10:54 AM 15.8 °F 5.1 °F 12.2 °F 86% 30.05 in 5.0 mi West 8.1 mph - N/A Snow Light Snow
11:15 AM 17.6 °F 7.3 °F 12.2 °F 79% 30.05 in 10.0 mi West 8.1 mph - N/A Snow Light Snow
11:35 AM 17.6 °F 5.7 °F 12.2 °F 79% 30.05 in 10.0 mi West 10.4 mph - N/A Snow Light Snow
11:54 AM 19.4 °F 9.5 °F 12.2 °F 74% 30.05 in 10.0 mi West 8.1 mph - N/A Snow Light Snow
12:15 PM 17.6 °F 6.4 °F 10.4 °F 73% 30.05 in 10.0 mi West 9.2 mph - N/A Snow Light Snow
12:35 PM 17.6 °F 5.0 °F 10.4 °F 73% 30.05 in 10.0 mi West 11.5 mph - N/A   Scattered Clouds
12:54 PM 17.6 °F 5.7 °F 10.4 °F 73% 30.05 in 10.0 mi WNW 10.4 mph 17.3 mph N/A   Scattered Clouds
1:15 PM 19.4 °F 7.2 °F 10.4 °F 68% 30.05 in 10.0 mi West 11.5 mph 16.1 mph N/A   Mostly Cloudy
1:35 PM 17.6 °F 4.3 °F 10.4 °F 73% 30.05 in 10.0 mi West 12.7 mph 18.4 mph N/A Snow Light Snow
1:54 PM 19.4 °F 7.9 °F 12.2 °F 74% 30.04 in 10.0 mi West 10.4 mph 18.4 mph N/A Snow Light Snow
2:15 PM 17.6 °F 5.0 °F 10.4 °F 73% 30.04 in 10.0 mi West 11.5 mph - N/A Snow Light Snow
2:35 PM 17.6 °F 4.3 °F 10.4 °F 73% 30.03 in 10.0 mi West 12.7 mph - N/A   Overcast
2:54 PM 17.6 °F 7.3 °F 10.4 °F 73% 30.03 in 10.0 mi West 8.1 mph - N/A Snow Light Snow
3:15 PM 17.6 °F 4.3 °F 10.4 °F 73% 30.04 in 10.0 mi West 12.7 mph - N/A   Overcast
3:34 PM 17.6 °F 5.7 °F 10.4 °F 73% 30.04 in 10.0 mi WNW 10.4 mph - N/A Snow Light Snow
3:55 PM 17.6 °F 7.3 °F 8.6 °F 68% 30.05 in 10.0 mi WNW 8.1 mph 16.1 mph N/A Snow Light Snow
4:15 PM 17.6 °F 6.4 °F 10.4 °F 73% 30.06 in 10.0 mi West 9.2 mph - N/A   Overcast
4:34 PM 17.6 °F 5.7 °F 8.6 °F 68% 30.08 in 10.0 mi WNW 10.4 mph - N/A   Overcast
4:55 PM 17.6 °F 8.2 °F 10.4 °F 73% 30.10 in 10.0 mi West 6.9 mph - N/A   Overcast
5:15 PM 17.6 °F 5.7 °F 10.4 °F 73% 30.11 in 10.0 mi West 10.4 mph 16.1 mph N/A   Overcast
5:34 PM 15.8 °F 3.4 °F 10.4 °F 79% 30.12 in 10.0 mi West 10.4 mph - N/A   Overcast
5:55 PM 15.8 °F 5.1 °F 10.4 °F 79% 30.12 in 10.0 mi West 8.1 mph - N/A Snow Light Snow
6:15 PM 15.8 °F 4.2 °F 10.4 °F 79% 30.13 in 5.0 mi West 9.2 mph - N/A Snow Light Snow
6:34 PM 15.8 °F 5.1 °F 10.4 °F 79% 30.13 in 4.0 mi West 8.1 mph - N/A Snow Light Snow
6:55 PM 14.0 °F 3.9 °F 10.4 °F 86% 30.14 in 7.0 mi West 6.9 mph - N/A Snow Light Snow
7:14 PM 12.2 °F 1.7 °F 8.6 °F 85% 30.15 in 10.0 mi West 6.9 mph - N/A   Mostly Cloudy
7:34 PM 12.2 °F 2.9 °F 8.6 °F 85% 30.15 in 10.0 mi West 5.8 mph - N/A Snow Light Snow
7:55 PM 12.2 °F 4.3 °F 8.6 °F 85% 30.16 in 10.0 mi WSW 4.6 mph - N/A   Overcast
8:14 PM 8.6 °F 2.0 °F 6.8 °F 92% 30.16 in 10.0 mi SW 3.5 mph - N/A   Mostly Cloudy
8:34 PM 10.4 °F 2.2 °F 6.8 °F 85% 30.16 in 10.0 mi West 4.6 mph - N/A   Scattered Clouds
8:55 PM 10.4 °F 4.0 °F 6.8 °F 85% 30.16 in 10.0 mi West 3.5 mph - N/A   Mostly Cloudy
9:15 PM 10.4 °F 2.2 °F 6.8 °F 85% 30.16 in 7.0 mi WSW 4.6 mph - N/A Snow Light Snow
9:34 PM 10.4 °F 4.0 °F 6.8 °F 85% 30.17 in 10.0 mi West 3.5 mph - N/A   Overcast
9:55 PM 10.4 °F -1.5 °F 6.8 °F 85% 30.17 in 10.0 mi West 8.1 mph - N/A Snow Light Snow
10:15 PM 10.4 °F -1.5 °F 6.8 °F 85% 30.17 in 10.0 mi West 8.1 mph - N/A Snow Light Snow
10:34 PM 8.6 °F -2.6 °F 5.0 °F 85% 30.17 in 10.0 mi West 6.9 mph - N/A   Clear
10:55 PM 8.6 °F -2.6 °F 5.0 °F 85% 30.17 in 10.0 mi West 6.9 mph - N/A   Clear
11:14 PM 8.6 °F -3.7 °F 5.0 °F 85% 30.17 in 10.0 mi West 8.1 mph - N/A   Clear
11:35 PM 8.6 °F -3.7 °F 5.0 °F 85% 30.17 in 10.0 mi West 8.1 mph - N/A   Clear
11:55 PM 8.6 °F -1.3 °F 5.0 °F 85% 30.18 in 10.0 mi West 5.8 mph - N/A   Scattered Clouds